,,Stat5,,Stat1,,Stat2,,Stat3,,Stat4,,Wind1,,Wind1,
time,status,PA1M_AVG,status,PR1M_SUM,status,RH1M_AVG,status,SR1M_AVG,status,TA1M_AVG,status,W1dAve1m,status,W1sAve1m,
2003-06-15, 00:00:00,VALID,917.858,VALID,0,VALID,94.3187,VALID,0,VALID,19.2883,VALID,97,VALID,0.73787,
2003-06-15, 00:01:00,VALID,917.829,VALID,0,VALID,94.3912,VALID,-0.0169808,VALID,19.2557,VALID,90,VALID,0.834671,
2003-06-15, 00:02:00,VALID,917.798,VALID,0,VALID,94.6506,VALID,0,VALID,19.2309,VALID,67,VALID,0.936899,
2003-06-15, 00:03:00,VALID,917.779,VALID,0,VALID,94.6735,VALID,-0.0169808,VALID,19.1693,VALID,57,VALID,1.0058,
2003-06-15, 00:04:00,VALID,917.775,VALID,0,VALID,94.8604,VALID,0.0169808,VALID,19.1015,VALID,59,VALID,1.16426,
2003-06-15, 00:05:00,VALID,917.783,VALID,0,VALID,95.0028,VALID,-0.0169808,VALID,19.0849,VALID,55,VALID,0.901933,
2003-06-15, 00:06:00,VALID,917.787,VALID,0,VALID,94.9914,VALID,-0.0169808,VALID,19.0591,VALID,55,VALID,0.630701,
2003-06-15, 00:07:00,VALID,917.803,VALID,0,VALID,94.9469,VALID,0,VALID,19.0266,VALID,61,VALID,0.795819,
2003-06-15, 00:08:00,VALID,917.794,VALID,0,VALID,95.2521,VALID,-0.0169808,VALID,18.9915,VALID,62,VALID,0.707648,
2003-06-15, 00:09:00,VALID,917.794,VALID,0,VALID,95.4721,VALID,0,VALID,18.9685,VALID,78,VALID,0.912212,
2003-06-15, 00:10:00,VALID,917.774,VALID,0,VALID,95.7531,VALID,0,VALID,18.9717,VALID,76,VALID,0.839384,
2003-06-15, 00:11:00,VALID,917.749,VALID,0,VALID,95.8942,VALID,0,VALID,18.9588,VALID,74,VALID,0.830529,
2003-06-15, 00:12:00,VALID,917.739,VALID,0,VALID,96.235,VALID,0.0169808,VALID,18.9685,VALID,84,VALID,0.78766,
2003-06-15, 00:13:00,VALID,917.739,VALID,0,VALID,96.3253,VALID,0.0169808,VALID,18.9816,VALID,87,VALID,0.744196,
2003-06-15, 00:14:00,VALID,917.731,VALID,0,VALID,96.4029,VALID,0,VALID,18.9848,VALID,89,VALID,0.659745,
2003-06-15, 00:15:00,VALID,917.74,VALID,0,VALID,96.6458,VALID,0,VALID,19.0201,VALID,98,VALID,0.604384,
2003-06-15, 00:16:00,VALID,917.734,VALID,0,VALID,96.7831,VALID,0,VALID,19.0427,VALID,109,VALID,0.612542,
2003-06-15, 00:17:00,VALID,917.719,VALID,0,VALID,96.806,VALID,0.0339617,VALID,19.0851,VALID,108,VALID,0.421429,
2003-06-15, 00:18:00,VALID,917.692,VALID,0,VALID,96.8352,VALID,0.0339617,VALID,19.1075,VALID,108,VALID,0.344439,
2003-06-15, 00:19:00,VALID,917.667,VALID,0,VALID,96.881,VALID,0.0169808,VALID,19.1497,VALID,108,VALID,0.279247,
2003-06-15, 00:20:00,VALID,917.632,VALID,0,VALID,96.6559,VALID,0,VALID,19.1499,VALID,109,VALID,0.333036,
2003-06-15, 00:21:00,VALID,917.6,VALID,0,VALID,96.6903,VALID,0.0169808,VALID,19.1594,VALID,111,VALID,0.417188,
2003-06-15, 00:22:00,VALID,917.568,VALID,0,VALID,96.6445,VALID,0,VALID,19.1656,VALID,122,VALID,0.462054,
2003-06-15, 00:23:00,VALID,917.55,VALID,0,VALID,96.7297,VALID,0,VALID,19.1718,VALID,132,VALID,0.4081,
2003-06-15, 00:24:00,VALID,917.515,VALID,0,VALID,96.4258,VALID,0,VALID,19.1847,VALID,144,VALID,0.348273,
2003-06-15, 00:25:00,VALID,917.496,VALID,0,VALID,96.2783,VALID,0,VALID,19.1661,VALID,144,VALID,0.126028,
2003-06-15, 00:26:00,VALID,917.47,VALID,0,VALID,96.1244,VALID,-0.0339617,VALID,19.1303,VALID,138,VALID,0.229883,
2003-06-15, 00:27:00,VALID,917.464,VALID,0,VALID,96.0087,VALID,-0.0169808,VALID,19.098,VALID,136,VALID,0.0527872,
2003-06-15, 00:28:00,VALID,917.461,VALID,0,VALID,95.9019,VALID,0,VALID,19.0494,VALID,107,VALID,0.227764,
2003-06-15, 00:29:00,VALID,917.456,VALID,0,VALID,95.8167,VALID,-0.0169808,VALID,18.9846,VALID,53,VALID,0.585714,
2003-06-15, 00:30:00,VALID,917.445,VALID,0,VALID,95.7633,VALID,0,VALID,18.9235,VALID,32,VALID,0.838471,
2003-06-15, 00:31:00,VALID,917.45,VALID,0,VALID,96.0112,VALID,0,VALID,18.8684,VALID,27,VALID,1.05664,
2003-06-15, 00:32:00,VALID,917.466,VALID,0,VALID,96.4817,VALID,0,VALID,18.859,VALID,21,VALID,1.06229,
2003-06-15, 00:33:00,VALID,917.501,VALID,0,VALID,97.1252,VALID,0,VALID,18.8912,VALID,10,VALID,1.09704,
2003-06-15, 00:34:00,VALID,917.528,VALID,0,VALID,97.9555,VALID,0,VALID,19.0203,VALID,2,VALID,1.03762,
2003-06-15, 00:35:00,VALID,917.556,VALID,0,VALID,98.4095,VALID,0,VALID,19.1688,VALID,1,VALID,0.805859,
2003-06-15, 00:36:00,VALID,917.557,VALID,0,VALID,98.5023,VALID,-0.0169808,VALID,19.289,VALID,11,VALID,0.86287,
2003-06-15, 00:37:00,VALID,917.549,VALID,0,VALID,98.3917,VALID,-0.0169808,VALID,19.3655,VALID,16,VALID,0.784821,
2003-06-15, 00:38:00,VALID,917.535,VALID,0,VALID,98.1323,VALID,0,VALID,19.4176,VALID,14,VALID,0.377148,
2003-06-15, 00:39:00,VALID,917.496,VALID,0,VALID,97.8512,VALID,0,VALID,19.434,VALID,14,VALID,0.26222,
2003-06-15, 00:40:00,VALID,917.476,VALID,0,VALID,97.6173,VALID,-0.0169808,VALID,19.4372,VALID,359,VALID,0.395148,
2003-06-15, 00:41:00,VALID,917.452,VALID,0,VALID,97.4774,VALID,0,VALID,19.4534,VALID,350,VALID,0.361064,
2003-06-15, 00:42:00,VALID,917.429,VALID,0,VALID,97.1926,VALID,-0.0339617,VALID,19.4206,VALID,20,VALID,0.705529,
2003-06-15, 00:43:00,VALID,917.415,VALID,0,VALID,97.3235,VALID,0,VALID,19.4467,VALID,30,VALID,0.938767,
2003-06-15, 00:44:00,VALID,917.42,VALID,0,VALID,97.5626,VALID,-0.0169808,VALID,19.505,VALID,34,VALID,0.655405,
2003-06-15, 00:45:00,VALID,917.424,VALID,0,VALID,97.3706,VALID,-0.0339617,VALID,19.5274,VALID,35,VALID,0.0943216,
2003-06-15, 00:46:00,VALID,917.423,VALID,0,VALID,97.2231,VALID,0,VALID,19.5304,VALID,35,VALID,0.0926649,
2003-06-15, 00:47:00,VALID,917.412,VALID,0,VALID,97.1684,VALID,0,VALID,19.5562,VALID,34,VALID,0.0789063,
2003-06-15, 00:48:00,VALID,917.39,VALID,0,VALID,97.2472,VALID,-0.0169808,VALID,19.5954,VALID,1,VALID,0.150641,
2003-06-15, 00:49:00,VALID,917.356,VALID,0,VALID,97.4125,VALID,-0.0169808,VALID,19.6538,VALID,350,VALID,0.0777344,
2003-06-15, 00:50:00,VALID,917.344,VALID,0,VALID,97.3464,VALID,-0.0169808,VALID,19.6918,VALID,350,VALID,0.000411184,
2003-06-15, 00:51:00,VALID,917.31,VALID,0,VALID,97.4075,VALID,0,VALID,19.7308,VALID,14,VALID,0.155428,
2003-06-15, 00:52:00,VALID,917.265,VALID,0,VALID,97.3604,VALID,0,VALID,19.7666,VALID,20,VALID,0.0470861,
2003-06-15, 00:53:00,VALID,917.228,VALID,0,VALID,97.2752,VALID,0,VALID,19.8016,VALID,20,VALID,0.00390625,
2003-06-15, 00:54:00,VALID,917.206,VALID,0,VALID,97.3057,VALID,-0.0169808,VALID,19.8309,VALID,20,VALID,0,
2003-06-15, 00:55:00,VALID,917.172,VALID,0,VALID,97.2599,VALID,0,VALID,19.8627,VALID,20,VALID,0,
2003-06-15, 00:56:00,VALID,917.152,VALID,0,VALID,96.9026,VALID,0,VALID,19.8659,VALID,22,VALID,0,
2003-06-15, 00:57:00,VALID,917.137,VALID,0,VALID,96.9637,VALID,0,VALID,19.8783,VALID,42,VALID,0.0762311,
2003-06-15, 00:58:00,VALID,917.106,VALID,0,VALID,96.7627,VALID,0.0169808,VALID,19.8984,VALID,117,VALID,0.462993,
2003-06-15, 00:59:00,VALID,917.085,VALID,0,VALID,96.6432,VALID,0,VALID,19.8694,VALID,119,VALID,0.0634766,
2003-06-15, 01:00:00,VALID,917.063,VALID,0,VALID,96.3368,VALID,0,VALID,19.8691,VALID,136,VALID,0.277755,
2003-06-15, 01:01:00,VALID,917.032,VALID,0,VALID,95.8688,VALID,0,VALID,19.7981,VALID,141,VALID,0.236431,
2003-06-15, 01:02:00,VALID,917.011,VALID,0,VALID,96.01,VALID,-0.0169808,VALID,19.7631,VALID,146,VALID,0.259816,
2003-06-15, 01:03:00,VALID,916.987,VALID,0,VALID,96.0596,VALID,0,VALID,19.7238,VALID,146,VALID,0,
2003-06-15, 01:04:00,VALID,916.963,VALID,0,VALID,96.0328,VALID,0,VALID,19.6752,VALID,146,VALID,0,
2003-06-15, 01:05:00,VALID,916.957,VALID,0,VALID,96.1091,VALID,0,VALID,19.669,VALID,59,VALID,0.256168,
2003-06-15, 01:06:00,VALID,916.935,VALID,0,VALID,95.7366,VALID,-0.0169808,VALID,19.6044,VALID,31,VALID,0.468359,
2003-06-15, 01:07:00,VALID,916.946,VALID,0,VALID,95.8281,VALID,-0.0169808,VALID,19.5493,VALID,31,VALID,0.343973,
2003-06-15, 01:08:00,VALID,916.964,VALID,0,VALID,96.2045,VALID,0,VALID,19.514,VALID,36,VALID,0.578758,
2003-06-15, 01:09:00,VALID,916.957,VALID,0,VALID,96.9064,VALID,-0.0509425,VALID,19.5237,VALID,45,VALID,0.995066,
2003-06-15, 01:10:00,VALID,916.985,VALID,0,VALID,97.5359,VALID,0,VALID,19.5882,VALID,46,VALID,1.21398,
2003-06-15, 01:11:00,VALID,916.992,VALID,0,VALID,98.0331,VALID,-0.0169808,VALID,19.6784,VALID,44,VALID,1.66905,
2003-06-15, 01:12:00,VALID,916.982,VALID,0,VALID,98.159,VALID,-0.0169808,VALID,19.7658,VALID,49,VALID,1.44593,
2003-06-15, 01:13:00,VALID,916.975,VALID,0,VALID,98.1501,VALID,0,VALID,19.8438,VALID,50,VALID,0.914286,
2003-06-15, 01:14:00,VALID,916.969,VALID,0,VALID,98.0458,VALID,0,VALID,19.8723,VALID,55,VALID,0.674479,
2003-06-15, 01:15:00,VALID,916.947,VALID,0,VALID,97.8258,VALID,0,VALID,19.882,VALID,76,VALID,0.500868,
2003-06-15, 01:16:00,VALID,916.936,VALID,0,VALID,97.5677,VALID,-0.0169808,VALID,19.8726,VALID,80,VALID,0.142314,
2003-06-15, 01:17:00,VALID,916.919,VALID,0,VALID,97.382,VALID,0,VALID,19.8368,VALID,98,VALID,0.219984,
2003-06-15, 01:18:00,VALID,916.912,VALID,0,VALID,97.1671,VALID,-0.0169808,VALID,19.7911,VALID,129,VALID,0.312911,
2003-06-15, 01:19:00,VALID,916.889,VALID,0,VALID,97.0654,VALID,0,VALID,19.7591,VALID,125,VALID,0.295351,
2003-06-15, 01:20:00,VALID,916.878,VALID,0,VALID,96.7844,VALID,0,VALID,19.7045,VALID,115,VALID,0.52484,
2003-06-15, 01:21:00,VALID,916.851,VALID,0,VALID,96.6178,VALID,0,VALID,19.6498,VALID,120,VALID,0.307292,
2003-06-15, 01:22:00,VALID,916.832,VALID,0,VALID,96.6356,VALID,0,VALID,19.5945,VALID,82,VALID,0.420186,
2003-06-15, 01:23:00,VALID,916.815,VALID,0,VALID,96.6928,VALID,-0.0169808,VALID,19.5465,VALID,89,VALID,0.584961,
2003-06-15, 01:24:00,VALID,916.78,VALID,0,VALID,96.8696,VALID,-0.0169808,VALID,19.5105,VALID,98,VALID,0.346048,
2003-06-15, 01:25:00,VALID,916.767,VALID,0,VALID,97.1086,VALID,0,VALID,19.5008,VALID,98,VALID,0.285742,
2003-06-15, 01:26:00,VALID,916.755,VALID,0,VALID,97.2714,VALID,-0.0169808,VALID,19.4978,VALID,98,VALID,0.230569,
2003-06-15, 01:27:00,VALID,916.756,VALID,0,VALID,97.4176,VALID,-0.0339617,VALID,19.5108,VALID,98,VALID,0.200658,
2003-06-15, 01:28:00,VALID,916.757,VALID,0,VALID,97.4952,VALID,-0.0509425,VALID,19.5041,VALID,98,VALID,0.0546875,
2003-06-15, 01:29:00,VALID,916.766,VALID,0,VALID,97.4647,VALID,-0.0169808,VALID,19.5075,VALID,98,VALID,0,
2003-06-15, 01:30:00,VALID,916.745,VALID,0,VALID,97.4507,VALID,-0.0169808,VALID,19.508,VALID,98,VALID,0.00664063,
2003-06-15, 01:31:00,VALID,916.714,VALID,0,VALID,97.5969,VALID,-0.0339617,VALID,19.5038,VALID,98,VALID,0.463141,
2003-06-15, 01:32:00,VALID,916.681,VALID,0,VALID,97.9682,VALID,-0.0169808,VALID,19.5493,VALID,84,VALID,0.612253,
2003-06-15, 01:33:00,VALID,916.631,VALID,0,VALID,98.309,VALID,-0.0169808,VALID,19.6334,VALID,81,VALID,0.517228,
2003-06-15, 01:34:00,VALID,916.606,VALID,0,VALID,98.3052,VALID,-0.0679233,VALID,19.6883,VALID,72,VALID,0.415865,
2003-06-15, 01:35:00,VALID,916.564,VALID,0,VALID,98.0394,VALID,-0.0339617,VALID,19.701,VALID,69,VALID,0.315667,
2003-06-15, 01:36:00,VALID,916.538,VALID,0,VALID,97.9225,VALID,-0.0679233,VALID,19.6856,VALID,69,VALID,0.500601,
2003-06-15, 01:37:00,VALID,916.51,VALID,0,VALID,98.0038,VALID,-0.0509425,VALID,19.701,VALID,83,VALID,0.606771,
2003-06-15, 01:38:00,VALID,916.496,VALID,0,VALID,98.0661,VALID,-0.0339617,VALID,19.7303,VALID,88,VALID,0.559245,
2003-06-15, 01:39:00,VALID,916.486,VALID,0,VALID,97.8296,VALID,-0.0849042,VALID,19.7109,VALID,99,VALID,0.375781,
2003-06-15, 01:40:00,VALID,916.479,VALID,0,VALID,97.6109,VALID,-0.0509425,VALID,19.6918,VALID,104,VALID,0.254223,
2003-06-15, 01:41:00,VALID,916.464,VALID,0,VALID,97.4825,VALID,-0.0169808,VALID,19.656,VALID,104,VALID,0.163061,
2003-06-15, 01:42:00,VALID,916.456,VALID,0,VALID,97.3858,VALID,-0.0339617,VALID,19.6143,VALID,104,VALID,0.0189145,
2003-06-15, 01:43:00,VALID,916.451,VALID,0,VALID,97.2867,VALID,-0.0679233,VALID,19.5845,VALID,104,VALID,0,
2003-06-15, 01:44:00,VALID,916.449,VALID,0,VALID,97.148,VALID,-0.0849042,VALID,19.5433,VALID,104,VALID,0,
2003-06-15, 01:45:00,VALID,916.438,VALID,0,VALID,97.129,VALID,-0.0509425,VALID,19.5006,VALID,104,VALID,0,
2003-06-15, 01:46:00,VALID,916.423,VALID,0,VALID,97.1353,VALID,-0.0339617,VALID,19.4748,VALID,104,VALID,0,
2003-06-15, 01:47:00,VALID,916.414,VALID,0,VALID,97.148,VALID,-0.0169808,VALID,19.4656,VALID,104,VALID,0,
2003-06-15, 01:48:00,VALID,916.412,VALID,0,VALID,97.2256,VALID,-0.0339617,VALID,19.4489,VALID,104,VALID,0,
2003-06-15, 01:49:00,VALID,916.407,VALID,0,VALID,97.4227,VALID,-0.0339617,VALID,19.4688,VALID,83,VALID,0.0884713,
2003-06-15, 01:50:00,VALID,916.408,VALID,0,VALID,97.335,VALID,-0.0339617,VALID,19.472,VALID,14,VALID,0.340144,
2003-06-15, 01:51:00,VALID,916.409,VALID,0,VALID,96.8123,VALID,-0.0169808,VALID,19.3685,VALID,14,VALID,0.124081,
2003-06-15, 01:52:00,VALID,916.416,VALID,0,VALID,97.0285,VALID,-0.0509425,VALID,19.3235,VALID,14,VALID,0.252204,
2003-06-15, 01:53:00,VALID,916.403,VALID,0,VALID,97.3248,VALID,-0.0169808,VALID,19.3238,VALID,14,VALID,0.0511924,
2003-06-15, 01:54:00,VALID,916.407,VALID,0,VALID,97.7699,VALID,-0.0169808,VALID,19.3692,VALID,14,VALID,0,
2003-06-15, 01:55:00,VALID,916.395,VALID,0,VALID,97.9835,VALID,0,VALID,19.404,VALID,14,VALID,0,
2003-06-15, 01:56:00,VALID,916.403,VALID,0,VALID,98.0598,VALID,-0.0169808,VALID,19.4236,VALID,14,VALID,0,
2003-06-15, 01:57:00,VALID,916.396,VALID,0,VALID,98.2022,VALID,-0.0169808,VALID,19.4554,VALID,14,VALID,0,
2003-06-15, 01:58:00,VALID,916.403,VALID,0,VALID,98.2887,VALID,-0.0169808,VALID,19.4852,VALID,14,VALID,0.0561655,
2003-06-15, 01:59:00,VALID,916.393,VALID,0,VALID,98.6803,VALID,-0.0509425,VALID,19.5947,VALID,14,VALID,0.00420673,
2003-06-15, 02:00:00,VALID,916.401,VALID,0,VALID,98.66,VALID,0,VALID,19.6498,VALID,14,VALID,0,
2003-06-15, 02:01:00,VALID,916.395,VALID,0,VALID,98.3624,VALID,-0.0339617,VALID,19.5786,VALID,14,VALID,0,
2003-06-15, 02:02:00,VALID,916.389,VALID,0,VALID,98.4336,VALID,0,VALID,19.5589,VALID,14,VALID,0,
2003-06-15, 02:03:00,VALID,916.385,VALID,0,VALID,98.59,VALID,0,VALID,19.5912,VALID,14,VALID,0,
2003-06-15, 02:04:00,VALID,916.39,VALID,0,VALID,98.6587,VALID,-0.0339617,VALID,19.6141,VALID,14,VALID,0,
2003-06-15, 02:05:00,VALID,916.371,VALID,0,VALID,98.8418,VALID,0,VALID,19.6468,VALID,14,VALID,0,
2003-06-15, 02:06:00,VALID,916.366,VALID,0,VALID,99.0936,VALID,-0.0509425,VALID,19.7109,VALID,14,VALID,0,
2003-06-15, 02:07:00,VALID,916.364,VALID,0,VALID,99.1966,VALID,-0.0169808,VALID,19.7919,VALID,14,VALID,0,
2003-06-15, 02:08:00,VALID,916.371,VALID,0,VALID,99.1966,VALID,-0.0169808,VALID,19.8468,VALID,14,VALID,0,
2003-06-15, 02:09:00,VALID,916.38,VALID,0,VALID,99.0936,VALID,-0.0679233,VALID,19.8699,VALID,14,VALID,0,
2003-06-15, 02:10:00,VALID,916.391,VALID,0,VALID,98.997,VALID,-0.0169808,VALID,19.8435,VALID,14,VALID,0,
2003-06-15, 02:11:00,VALID,916.409,VALID,0,VALID,98.9728,VALID,-0.0339617,VALID,19.8336,VALID,14,VALID,0,
2003-06-15, 02:12:00,VALID,916.431,VALID,0,VALID,98.9792,VALID,-0.0509425,VALID,19.8244,VALID,14,VALID,0.068051,
2003-06-15, 02:13:00,VALID,916.447,VALID,0,VALID,98.763,VALID,-0.0339617,VALID,19.7819,VALID,14,VALID,0.0861486,
2003-06-15, 02:14:00,VALID,916.466,VALID,0,VALID,98.5862,VALID,-0.0169808,VALID,19.6622,VALID,14,VALID,0.0892578,
2003-06-15, 02:15:00,VALID,916.461,VALID,0,VALID,98.5837,VALID,-0.0169808,VALID,19.6108,VALID,14,VALID,0.282986,
2003-06-15, 02:16:00,VALID,916.475,VALID,0,VALID,98.674,VALID,0,VALID,19.5949,VALID,14,VALID,0.162796,
2003-06-15, 02:17:00,VALID,916.459,VALID,0,VALID,98.7935,VALID,-0.0339617,VALID,19.5848,VALID,14,VALID,0.268298,
2003-06-15, 02:18:00,VALID,916.464,VALID,0,VALID,99.105,VALID,0,VALID,19.6493,VALID,14,VALID,0.286695,
2003-06-15, 02:19:00,VALID,916.443,VALID,0,VALID,99.3314,VALID,0,VALID,19.7723,VALID,25,VALID,0.296258,
2003-06-15, 02:20:00,VALID,916.43,VALID,0,VALID,99.2246,VALID,-0.0509425,VALID,19.8237,VALID,83,VALID,0.361914,
2003-06-15, 02:21:00,VALID,916.411,VALID,0,VALID,98.8749,VALID,-0.0169808,VALID,19.7591,VALID,102,VALID,0.538446,
2003-06-15, 02:22:00,VALID,916.417,VALID,0,VALID,99.0377,VALID,-0.0339617,VALID,19.7367,VALID,129,VALID,0.479852,
2003-06-15, 02:23:00,VALID,916.428,VALID,0,VALID,98.7643,VALID,-0.0339617,VALID,19.7144,VALID,149,VALID,1.29908,
2003-06-15, 02:24:00,VALID,916.432,VALID,0,VALID,98.4006,VALID,-0.0169808,VALID,19.5974,VALID,151,VALID,1.34776,
2003-06-15, 02:25:00,VALID,916.433,VALID,0,VALID,98.2378,VALID,-0.0339617,VALID,19.4785,VALID,146,VALID,1.13158,
2003-06-15, 02:26:00,VALID,916.439,VALID,0,VALID,98.0954,VALID,-0.0509425,VALID,19.398,VALID,142,VALID,1.11678,
2003-06-15, 02:27:00,VALID,916.415,VALID,0,VALID,98.0305,VALID,-0.0339617,VALID,19.2947,VALID,139,VALID,1.16855,
2003-06-15, 02:28:00,VALID,916.399,VALID,0,VALID,97.9911,VALID,-0.0509425,VALID,19.2207,VALID,120,VALID,0.830357,
2003-06-15, 02:29:00,VALID,916.389,VALID,0,VALID,98.1933,VALID,-0.0339617,VALID,19.1589,VALID,138,VALID,0.952492,
2003-06-15, 02:30:00,VALID,916.357,VALID,0,VALID,98.309,VALID,-0.0169808,VALID,19.1365,VALID,134,VALID,0.782895,
2003-06-15, 02:31:00,VALID,916.334,VALID,0,VALID,98.4031,VALID,-0.0339617,VALID,19.1209,VALID,135,VALID,0.948568,
2003-06-15, 02:32:00,VALID,916.336,VALID,0,VALID,98.5176,VALID,-0.0679233,VALID,19.0978,VALID,136,VALID,0.793403,
2003-06-15, 02:33:00,VALID,916.318,VALID,0,VALID,98.6129,VALID,-0.0339617,VALID,19.1013,VALID,135,VALID,0.806332,
2003-06-15, 02:34:00,VALID,916.316,VALID,0,VALID,98.7248,VALID,-0.0339617,VALID,19.108,VALID,139,VALID,0.623661,
2003-06-15, 02:35:00,VALID,916.315,VALID,0,VALID,98.8494,VALID,-0.0509425,VALID,19.1236,VALID,147,VALID,0.896234,
2003-06-15, 02:36:00,VALID,916.317,VALID,0,VALID,98.8711,VALID,-0.0679233,VALID,19.1365,VALID,140,VALID,0.674913,
2003-06-15, 02:37:00,VALID,916.314,VALID,0,VALID,98.9054,VALID,-0.0509425,VALID,19.1624,VALID,138,VALID,0.593967,
2003-06-15, 02:38:00,VALID,916.296,VALID,0,VALID,98.9563,VALID,-0.0509425,VALID,19.182,VALID,133,VALID,0.55736,
2003-06-15, 02:39:00,VALID,916.291,VALID,0,VALID,99.0618,VALID,-0.0849042,VALID,19.2043,VALID,143,VALID,0.80366,
2003-06-15, 02:40:00,VALID,916.284,VALID,0,VALID,99.0453,VALID,-0.0509425,VALID,19.2401,VALID,157,VALID,0.782774,
2003-06-15, 02:41:00,VALID,916.273,VALID,0,VALID,98.9232,VALID,-0.0849042,VALID,19.2403,VALID,153,VALID,0.917869,
2003-06-15, 02:42:00,VALID,916.264,VALID,0,VALID,98.8812,VALID,0,VALID,19.213,VALID,151,VALID,0.942308,
2003-06-15, 02:43:00,VALID,916.257,VALID,0,VALID,98.9893,VALID,0.0509425,VALID,19.2289,VALID,161,VALID,0.714949,
2003-06-15, 02:44:00,VALID,916.278,VALID,0,VALID,98.9855,VALID,0.0849042,VALID,19.2513,VALID,155,VALID,0.947266,
2003-06-15, 02:45:00,VALID,916.271,VALID,0,VALID,98.9499,VALID,0.0849042,VALID,19.2548,VALID,152,VALID,0.974265,
2003-06-15, 02:46:00,VALID,916.28,VALID,0,VALID,99.0656,VALID,0.0509425,VALID,19.2841,VALID,142,VALID,0.849023,
2003-06-15, 02:47:00,VALID,916.279,VALID,0,VALID,99.1178,VALID,0.0679233,VALID,19.3226,VALID,105,VALID,0.499199,
2003-06-15, 02:48:00,VALID,916.266,VALID,0,VALID,99.0173,VALID,0.0339617,VALID,19.335,VALID,54,VALID,0.674753,
2003-06-15, 02:49:00,VALID,916.258,VALID,0,VALID,99.0961,VALID,0,VALID,19.3643,VALID,79,VALID,0.955592,
2003-06-15, 02:50:00,VALID,916.264,VALID,0,VALID,99.2144,VALID,0.0679233,VALID,19.4321,VALID,66,VALID,0.899805,
2003-06-15, 02:51:00,VALID,916.246,VALID,0,VALID,99.1991,VALID,0.0509425,VALID,19.514,VALID,63,VALID,1.05586,
2003-06-15, 02:52:00,VALID,916.236,VALID,0,VALID,99.0936,VALID,0.0849042,VALID,19.5192,VALID,59,VALID,1.0008,
2003-06-15, 02:53:00,VALID,916.236,VALID,0,VALID,99.0491,VALID,0.0509425,VALID,19.555,VALID,69,VALID,0.788446,
2003-06-15, 02:54:00,VALID,916.221,VALID,0,VALID,99.0745,VALID,0.0849042,VALID,19.591,VALID,77,VALID,0.67488,
2003-06-15, 02:55:00,VALID,916.213,VALID,0,VALID,99.0809,VALID,0.0679233,VALID,19.6327,VALID,77,VALID,0.327724,
2003-06-15, 02:56:00,VALID,916.2,VALID,0,VALID,99.0249,VALID,0.0679233,VALID,19.6685,VALID,77,VALID,0.0532095,
2003-06-15, 02:57:00,VALID,916.19,VALID,0,VALID,98.9067,VALID,-0.0169808,VALID,19.6759,VALID,77,VALID,0,
2003-06-15, 02:58:00,VALID,916.181,VALID,0,VALID,98.6295,VALID,-0.0169808,VALID,19.6339,VALID,58,VALID,0.284939,
2003-06-15, 02:59:00,VALID,916.164,VALID,0,VALID,98.4845,VALID,-0.0679233,VALID,19.5984,VALID,22,VALID,0.856554,
2003-06-15, 03:00:00,VALID,916.139,VALID,0,VALID,98.454,VALID,-0.0509425,VALID,19.592,VALID,14,VALID,0.543945,
2003-06-15, 03:01:00,VALID,916.126,VALID,0,VALID,98.3815,VALID,-0.0509425,VALID,19.5761,VALID,14,VALID,0.290118,
2003-06-15, 03:02:00,VALID,916.113,VALID,0,VALID,98.384,VALID,-0.0339617,VALID,19.5689,VALID,14,VALID,0.134816,
2003-06-15, 03:03:00,VALID,916.101,VALID,0,VALID,98.4006,VALID,-0.0169808,VALID,19.5661,VALID,14,VALID,0,
2003-06-15, 03:04:00,VALID,916.088,VALID,0,VALID,98.4146,VALID,-0.0169808,VALID,19.5691,VALID,14,VALID,0.0379192,
2003-06-15, 03:05:00,VALID,916.088,VALID,0,VALID,98.4883,VALID,-0.0339617,VALID,19.5723,VALID,34,VALID,0.445513,
2003-06-15, 03:06:00,VALID,916.093,VALID,0,VALID,98.5354,VALID,-0.0169808,VALID,19.6016,VALID,88,VALID,0.581926,
2003-06-15, 03:07:00,VALID,916.091,VALID,0,VALID,98.618,VALID,-0.0169808,VALID,19.5915,VALID,99,VALID,0.662109,
2003-06-15, 03:08:00,VALID,916.103,VALID,0,VALID,98.632,VALID,-0.0169808,VALID,19.6044,VALID,99,VALID,0.587941,
2003-06-15, 03:09:00,VALID,916.114,VALID,0,VALID,98.5048,VALID,0,VALID,19.5979,VALID,96,VALID,0.506785,
2003-06-15, 03:10:00,VALID,916.124,VALID,0,VALID,98.3955,VALID,0,VALID,19.5689,VALID,84,VALID,0.626056,
2003-06-15, 03:11:00,VALID,916.131,VALID,0,VALID,98.482,VALID,0,VALID,19.543,VALID,83,VALID,0.924279,
2003-06-15, 03:12:00,VALID,916.128,VALID,0,VALID,98.5392,VALID,0,VALID,19.5398,VALID,85,VALID,0.779871,
2003-06-15, 03:13:00,VALID,916.134,VALID,0,VALID,98.6918,VALID,-0.0169808,VALID,19.5525,VALID,86,VALID,0.746194,
2003-06-15, 03:14:00,VALID,916.129,VALID,0,VALID,98.7401,VALID,0,VALID,19.5624,VALID,88,VALID,0.728413,
2003-06-15, 03:15:00,VALID,916.132,VALID,0,VALID,98.749,VALID,0,VALID,19.5721,VALID,80,VALID,0.74349,
2003-06-15, 03:16:00,VALID,916.132,VALID,0,VALID,98.9067,VALID,0,VALID,19.5977,VALID,89,VALID,0.656883,
2003-06-15, 03:17:00,VALID,916.114,VALID,0,VALID,98.9906,VALID,0,VALID,19.6364,VALID,97,VALID,0.783789,
2003-06-15, 03:18:00,VALID,916.103,VALID,0,VALID,99.0173,VALID,-0.0339617,VALID,19.6752,VALID,95,VALID,0.869243,
2003-06-15, 03:19:00,VALID,916.076,VALID,0,VALID,98.9766,VALID,-0.0339617,VALID,19.701,VALID,88,VALID,0.551098,
2003-06-15, 03:20:00,VALID,916.078,VALID,0,VALID,98.8838,VALID,-0.0169808,VALID,19.7238,VALID,91,VALID,0.526643,
2003-06-15, 03:21:00,VALID,916.063,VALID,0,VALID,98.7935,VALID,-0.0339617,VALID,19.7338,VALID,87,VALID,0.224359,
2003-06-15, 03:22:00,VALID,916.07,VALID,0,VALID,98.6803,VALID,-0.0169808,VALID,19.7209,VALID,59,VALID,0.256785,
2003-06-15, 03:23:00,VALID,916.084,VALID,0,VALID,98.6078,VALID,-0.0679233,VALID,19.7209,VALID,68,VALID,0.234586,
2003-06-15, 03:24:00,VALID,916.089,VALID,0,VALID,98.501,VALID,-0.0339617,VALID,19.7109,VALID,89,VALID,0.182692,
2003-06-15, 03:25:00,VALID,916.109,VALID,0,VALID,98.426,VALID,-0.0339617,VALID,19.7144,VALID,95,VALID,0.00570101,
2003-06-15, 03:26:00,VALID,916.12,VALID,0,VALID,98.4324,VALID,-0.0339617,VALID,19.7181,VALID,95,VALID,0,
2003-06-15, 03:27:00,VALID,916.132,VALID,0,VALID,98.412,VALID,-0.0679233,VALID,19.7238,VALID,95,VALID,0.0259146,
2003-06-15, 03:28:00,VALID,916.135,VALID,0,VALID,98.3853,VALID,-0.0679233,VALID,19.737,VALID,95,VALID,0.0273438,
2003-06-15, 03:29:00,VALID,916.135,VALID,0,VALID,98.3268,VALID,-0.0339617,VALID,19.7435,VALID,97,VALID,0.207617,
2003-06-15, 03:30:00,VALID,916.127,VALID,0,VALID,98.2607,VALID,-0.0339617,VALID,19.7467,VALID,126,VALID,0.580329,
2003-06-15, 03:31:00,VALID,916.109,VALID,0,VALID,98.2289,VALID,-0.0169808,VALID,19.7435,VALID,129,VALID,0.730664,
2003-06-15, 03:32:00,VALID,916.096,VALID,0,VALID,98.2391,VALID,-0.0169808,VALID,19.7367,VALID,114,VALID,0.589638,
2003-06-15, 03:33:00,VALID,916.077,VALID,0,VALID,98.2772,VALID,-0.0169808,VALID,19.7367,VALID,115,VALID,0.689145,
2003-06-15, 03:34:00,VALID,916.064,VALID,0,VALID,98.3459,VALID,-0.0169808,VALID,19.7497,VALID,129,VALID,0.662373,
2003-06-15, 03:35:00,VALID,916.054,VALID,0,VALID,98.3713,VALID,-0.0509425,VALID,19.7725,VALID,143,VALID,0.747656,
2003-06-15, 03:36:00,VALID,916.038,VALID,0,VALID,98.3968,VALID,-0.0169808,VALID,19.8048,VALID,142,VALID,0.798177,
2003-06-15, 03:37:00,VALID,916.023,VALID,0,VALID,98.3383,VALID,-0.0169808,VALID,19.8204,VALID,155,VALID,0.48522,